User: anonymous   Login
Location: Unspecified
(0.0000°N, 0.0000°E)
Time: 20:49:58
(UTC+02:00)
Language:

Gbstr 26 Del rocket - Orbit

View from above orbital plane
View from above orbital plane
View from above satellite
View from above satellite

Ground track
Ground track

The orbit data is extracted from the following two-line orbital elements,

1 25876U 99041E   16145.30142423  .00000146  00000-0  65604-4 0  9993
2 25876  51.7673  50.8601 0533058 334.9334  22.6552 14.03816117859985
Epoch (UTC): 24 May 2016 07:14:03
Eccentricity: 0.0533058
inclination: 51.7673°
perigee height: 493 km
apogee height: 1267 km
right ascension of ascending node: 50.8601°
argument of perigee: 334.9334°
revolutions per day: 14.03816117
mean anomaly at epoch: 22.6552°
orbit number at epoch: 85998

The dashed part of the orbit path shows where the satellite is in the earth's shadow,  

DLR